Location: Chervonnoye
(48.6000°N, 34.4000°E)
Time: 12:41:50
(UTC+00:00)

Cosmos 1328 Rocket - Pass Details

Date: 23 November 2020
Orbit: 601 x 627 km, 82.5° (Epoch: 27 January)

Event Time Altitude Azimuth Distance (km) Brightness Sun altitude
Rises 15:29:11 0° 159° (SSE) 2,840 6.9 -15.3°
Reaches altitude 10° 15:31:37 10° 147° (SSE) 1,944 5.9 -15.7°
Enters shadow 15:34:41 27° 103° (ESE) 1,182 4.5 -16.2°
